COSMOS 2428 - Orbit

View from above orbital plane
View from above orbital plane
View from above satellite
View from above satellite

Ground track
Ground track

The orbit data is extracted from the following two-line orbital elements,

1 31792U 07029A   13144.18397322  .00000137  00000-0  10000-3 0  5472
2 31792 070.9600 284.9274 0010025 349.7401 068.0449 14.12316430304393
Epoch (UTC): 24 May 2013 04:24:55
Eccentricity: 0.0010025
inclination: 70.9600°
perigee height: 844 km
apogee height: 859 km
right ascension of ascending node: 284.9274°
argument of perigee: 349.7401°
revolutions per day: 14.12316430
mean anomaly at epoch: 68.0449°
orbit number at epoch: 30439

The dashed part of the orbit path shows where the satellite is in the earth's shadow,  

Developed and maintained by Chris Peat, Heavens-Above GmbH. Please read the updated FAQ before sending e-mail. Imprint. DLR